CNH660 UKBP-HRYR

Flight info

Callsign CNH660
Flight time N/A
Altitude 33000
Route UKBP BASOR M856 SULUM DCT GOBLI/K0856F320 DCT RATNO DCT BAGRI/N0461F320 DCT IRDUM/N0461F330 T219 RIXEN UL620 IST UG8 YAA UN617 IRGAK UM855 TOMBI M855 MAROS/N0463F350 M855 RASDA A16 CVO W8 KHG W601 DESDO P557 NUBAR L554 PASAB/N0462F370 L554 KUNDI/N0455F390 L554 JUB L567 OVELA UB527 ASEKA/N0453F400 UB527 EGREK EGRE2A HRYR/28
Aircraft IL76/M-SDE2E3FGHIRWXY/C

Departure

Time 2026-04-25 22:49
Airport Pryluki Air Base (UKBP)

Arrival

Time N/A
Airport Kigali International Airport (HRYR)
Time Latitude Longitude Altitude Speed Heading
2026-04-25 22:44 50.57286 32.32104 430 ft 0 kts 270°
2026-04-25 22:44 50.57288 32.32087 430 ft 7 kts 291°
2026-04-25 22:44 50.57396 32.32037 434 ft 25 kts 355°
2026-04-25 22:45 50.57552 32.32001 437 ft 19 kts 354°
2026-04-25 22:45 50.57687 32.31991 435 ft 21 kts 358°
2026-04-25 22:45 50.57864 32.31985 433 ft 28 kts
2026-04-25 22:45 50.58074 32.31985 432 ft 31 kts 356°
2026-04-25 22:46 50.58269 32.31974 431 ft 24 kts 359°
2026-04-25 22:46 50.58423 32.31969 429 ft 19 kts 359°
2026-04-25 22:46 50.58532 32.31969 432 ft 12 kts
2026-04-25 22:46 50.58630 32.31959 434 ft 14 kts 337°
2026-04-25 22:47 50.58666 32.31874 437 ft 12 kts 277°
2026-04-25 22:47 50.58669 32.31722 436 ft 8 kts 268°
2026-04-25 22:47 50.58658 32.31628 436 ft 12 kts 241°
2026-04-25 22:47 50.58529 32.31557 433 ft 37 kts 180°
2026-04-25 22:48 50.58101 32.31560 430 ft 84 kts 180°
2026-04-25 22:48 50.57377 32.31578 438 ft 121 kts 178°
2026-04-25 22:48 50.56425 32.31590 424 ft 151 kts 181°
2026-04-25 22:48 50.55389 32.31615 776 ft 141 kts 182°
2026-04-25 22:49 50.54436 32.31665 1041 ft 138 kts 183°
2026-04-25 22:49 50.53463 32.31720 1199 ft 146 kts 185°
2026-04-25 22:49 50.52406 32.31587 1384 ft 153 kts 199°
2026-04-25 22:49 50.51404 32.30940 1691 ft 160 kts 216°
2026-04-25 22:50 50.50435 32.30027 2092 ft 168 kts 214°
2026-04-25 22:50 50.49417 32.29057 2510 ft 173 kts 219°
2026-04-25 22:50 50.48482 32.27961 3169 ft 164 kts 225°
2026-04-25 22:50 50.47538 32.26636 3116 ft 198 kts 227°
2026-04-25 22:51 50.46750 32.24805 3119 ft 221 kts 261°
2026-04-25 22:51 50.46785 32.22279 3309 ft 242 kts 270°
2026-04-25 22:51 50.46820 32.19559 3640 ft 259 kts 271°
2026-04-25 22:51 50.46552 32.16686 3774 ft 282 kts 243°
2026-04-25 22:52 50.45374 32.14130 4006 ft 302 kts 234°
2026-04-25 22:52 50.43997 32.11470 4166 ft 324 kts 230°
2026-04-25 22:52 50.42452 32.08775 4481 ft 339 kts 230°
2026-04-25 22:52 50.40796 32.05992 4981 ft 348 kts 229°
2026-04-25 22:53 50.39144 32.03233 5627 ft 352 kts 229°
2026-04-25 22:53 50.37465 32.00459 6280 ft 355 kts 230°
2026-04-25 22:53 50.35761 31.97649 6944 ft 358 kts 229°
2026-04-25 22:53 50.34046 31.94820 7579 ft 355 kts 229°
2026-04-25 22:54 50.32359 31.92061 7713 ft 354 kts 229°
2026-04-25 22:54 50.30667 31.89268 7840 ft 354 kts 229°
2026-04-25 22:54 50.28957 31.86469 7963 ft 353 kts 229°
2026-04-25 22:54 50.27264 31.83696 8210 ft 349 kts 230°
2026-04-25 22:55 50.25593 31.80963 8476 ft 345 kts 230°
2026-04-25 22:55 50.23936 31.78244 8764 ft 352 kts 230°
2026-04-25 22:55 50.22226 31.75455 9053 ft 364 kts 230°
2026-04-25 22:55 50.20448 31.72554 9447 ft 371 kts 230°
2026-04-25 22:56 50.18657 31.69638 9968 ft 374 kts 230°
2026-04-25 22:56 50.16844 31.66690 10510 ft 377 kts 230°
2026-04-25 22:56 50.15029 31.63742 11032 ft 379 kts 230°
2026-04-25 22:56 50.13190 31.60758 11516 ft 382 kts 230°
2026-04-25 22:57 50.11345 31.57764 11968 ft 385 kts 230°
2026-04-25 22:57 50.09490 31.54761 12450 ft 387 kts 230°
2026-04-25 22:57 50.07605 31.51713 12948 ft 389 kts 230°
2026-04-25 22:57 50.05730 31.48683 13439 ft 390 kts 230°
2026-04-25 22:58 50.03864 31.45671 13926 ft 390 kts 230°
2026-04-25 22:58 50.01982 31.42636 14414 ft 390 kts 230°
2026-04-25 22:58 50.00095 31.39594 14910 ft 390 kts 230°
2026-04-25 22:58 49.98225 31.36589 15398 ft 390 kts 230°
2026-04-25 22:59 49.96347 31.33574 15886 ft 389 kts 230°
2026-04-25 22:59 49.94452 31.30535 16392 ft 388 kts 230°
2026-04-25 22:59 49.92584 31.27539 16890 ft 387 kts 230°
2026-04-25 22:59 49.90732 31.24574 17377 ft 386 kts 230°
2026-04-25 23:00 49.88877 31.21608 17864 ft 384 kts 230°
2026-04-25 23:00 49.87030 31.18657 18352 ft 382 kts 230°
2026-04-25 23:00 49.85194 31.15729 18847 ft 379 kts 230°
2026-04-25 23:00 49.83355 31.12798 19347 ft 377 kts 230°
2026-04-25 23:01 49.81539 31.09906 19846 ft 374 kts 230°
2026-04-25 23:01 49.79733 31.07036 20346 ft 371 kts 230°
2026-04-25 23:01 49.77953 31.04215 20841 ft 367 kts 230°
2026-04-25 23:01 49.76196 31.01424 21339 ft 364 kts 230°
2026-04-25 23:02 49.74441 30.98646 21850 ft 360 kts 230°
2026-04-25 23:02 49.72694 30.95882 22359 ft 355 kts 230°
2026-04-25 23:02 49.70986 30.93181 22859 ft 351 kts 230°
2026-04-25 23:02 49.69310 30.90536 23363 ft 346 kts 230°
2026-04-25 23:03 49.67631 30.87888 23875 ft 340 kts 230°
2026-04-25 23:03 49.66004 30.85324 24369 ft 334 kts 230°
2026-04-25 23:03 49.64389 30.82788 24867 ft 328 kts 230°
2026-04-25 23:03 49.62817 30.80315 25361 ft 321 kts 230°
2026-04-25 23:04 49.61263 30.77874 25864 ft 313 kts 230°
2026-04-25 23:04 49.59773 30.75540 26353 ft 305 kts 230°
2026-04-25 23:04 49.58310 30.73246 26841 ft 296 kts 230°
2026-04-25 23:04 49.56880 30.71011 27330 ft 286 kts 230°
2026-04-25 23:05 49.55196 30.69455 27742 ft 290 kts 197°
2026-04-25 23:05 49.53214 30.69294 28328 ft 279 kts 188°
2026-04-25 23:05 49.51334 30.69231 28719 ft 266 kts 189°
2026-04-25 23:05 49.49432 30.69254 28314 ft 289 kts 184°
2026-04-25 23:06 49.47306 30.69231 27569 ft 313 kts 189°
2026-04-25 23:06 49.45293 30.69131 28752 ft 269 kts 188°
2026-04-25 23:06 49.43493 30.69087 28938 ft 270 kts 191°
2026-04-25 23:06 49.41451 30.68976 27754 ft 313 kts 187°
2026-04-25 23:07 49.39346 30.68744 28179 ft 295 kts 194°
2026-04-25 23:07 49.37263 30.68654 28284 ft 301 kts 186°
2026-04-25 23:07 49.35178 30.68681 28472 ft 297 kts 187°
2026-04-25 23:07 49.33115 30.68679 28635 ft 295 kts 187°
2026-04-25 23:08 49.31054 30.68688 28803 ft 293 kts 185°
2026-04-25 23:08 49.29044 30.68690 28965 ft 288 kts 188°
2026-04-25 23:08 49.27050 30.68640 29123 ft 286 kts 188°
2026-04-25 23:08 49.25044 30.68595 29144 ft 288 kts 188°
2026-04-25 23:09 49.23040 30.68546 29153 ft 290 kts 188°
2026-04-25 23:09 49.21019 30.68500 29158 ft 293 kts 187°
2026-04-25 23:09 49.19371 30.68433 28813 ft 289 kts 182°
2026-04-25 23:09 49.17345 30.68377 28749 ft 295 kts 180°
2026-04-25 23:10 49.16001 30.68410 28774 ft 279 kts 177°
2026-04-25 23:10 49.14116 30.68810 28256 ft 277 kts 151°
2026-04-25 23:10 49.12438 30.69821 26908 ft 302 kts 163°